TimeAKST,TemperatureF,Dew PointF,Humidity,Sea Level PressureIn,VisibilityMPH,Wind Direction,Wind SpeedMPH,Gust SpeedMPH,PrecipitationIn,Events,Conditions,WindDirDegrees,DateUTC
12:53 AM,26.1,18.0,71,30.01,10.0,Calm,Calm,-,N/A,,Clear,0,2013-11-16 09:53:00
1:53 AM,25.0,17.1,72,30.02,10.0,Calm,Calm,-,N/A,,Clear,0,2013-11-16 10:53:00
3:53 AM,27.0,16.0,63,30.05,10.0,Calm,Calm,-,N/A,,Clear,0,2013-11-16 12:53:00
4:53 AM,27.0,14.0,58,30.06,10.0,NE,5.8,-,N/A,,Clear,40,2013-11-16 13:53:00
5:53 AM,28.0,12.9,53,30.08,10.0,Calm,Calm,-,N/A,,Clear,0,2013-11-16 14:53:00
6:53 AM,27.0,12.9,56,30.10,10.0,ENE,5.8,-,N/A,,Clear,70,2013-11-16 15:53:00
7:53 AM,25.0,10.9,55,30.13,10.0,East,6.9,-,N/A,,Clear,80,2013-11-16 16:53:00
8:53 AM,26.1,10.9,53,30.15,10.0,Calm,Calm,-,N/A,,Clear,0,2013-11-16 17:53:00
9:53 AM,24.1,12.0,60,30.18,10.0,Calm,Calm,-,N/A,,Clear,0,2013-11-16 18:53:00
10:53 AM,28.9,10.9,47,30.20,10.0,NE,5.8,-,N/A,,Clear,50,2013-11-16 19:53:00
11:53 AM,30.9,12.0,46,30.19,10.0,ENE,8.1,-,N/A,,Scattered Clouds,60,2013-11-16 20:53:00
12:53 PM,32.0,8.1,37,30.20,10.0,ENE,11.5,-,N/A,,Scattered Clouds,70,2013-11-16 21:53:00
1:53 PM,32.0,8.1,37,30.21,10.0,ENE,9.2,-,N/A,,Scattered Clouds,70,2013-11-16 22:53:00
2:53 PM,32.0,7.0,35,30.20,10.0,ENE,6.9,-,N/A,,Scattered Clouds,70,2013-11-16 23:53:00
3:53 PM,30.0,7.0,38,30.19,10.0,ENE,4.6,-,N/A,,Scattered Clouds,60,2013-11-17 00:53:00
4:53 PM,28.0,7.0,41,30.20,10.0,NNE,3.5,-,N/A,,Scattered Clouds,20,2013-11-17 01:53:00
5:53 PM,26.1,7.0,44,30.21,10.0,ENE,5.8,-,N/A,,Scattered Clouds,60,2013-11-17 02:53:00
6:53 PM,28.0,10.0,47,30.22,10.0,ENE,9.2,-,N/A,,Mostly Cloudy,60,2013-11-17 03:53:00
7:53 PM,26.1,10.0,51,30.22,10.0,NE,5.8,-,N/A,,Scattered Clouds,50,2013-11-17 04:53:00
8:53 PM,27.0,7.0,43,30.22,10.0,NNE,8.1,-,N/A,,Partly Cloudy,30,2013-11-17 05:53:00
9:53 PM,26.1,6.1,43,30.23,10.0,NNE,8.1,-,N/A,,Partly Cloudy,30,2013-11-17 06:53:00
10:53 PM,26.1,5.0,41,30.23,10.0,NNE,10.4,-,N/A,,Clear,30,2013-11-17 07:53:00
11:53 PM,26.1,3.9,39,30.24,10.0,NE,11.5,19.6,N/A,,Clear,50,2013-11-17 08:53:00